399  
ASUS42 KCHS 040127  
RWRCHS  
 
REGIONAL WEATHER ROUNDUP  
NATIONAL WEATHER SERVICE CHARLESTON SC  
800 PM EST FRI DEC 03 2021  
 
NOTE: "FAIR" INDICATES FEW OR NO CLOUDS BELOW 12,000 FEET WITH NO  
SIGNIFICANT WEATHER AND/OR S TO VISIBILITY
.  
 
NOT ALL STATIONS ARE QUALITY CONTROLLED. USE DATA WITH CAUTION,  
ESPECIALLY DEWPOINT OBSERVATIONS.  
 
SCZ027-030-031-034>040-042>050-040200-   
..SOUTHEAST SOUTH CAROLINA
 
 
 
CITY SKY/WX TMP DP RH WIND PRES REMARKS
 
N CHARLESTON PTCLDY 57 44 62 S3 30.07R  
WATERFRONT PRK N/A 59 53 80 CALM 29.93R  
MOUNT PLEASANT FAIR 54 50 87 CALM 30.08R  
JOHNS ISLAND FAIR 54 50 87 CALM 30.09R  
PINOPOLIS N/A 64 45 48 VRB3 29.97R  
MONCKS CORNER FAIR 52 45 76 CALM 30.07S  
SUMMERVILLE FAIR 55 52 88 CALM 30.07R  
BEAUFORT MCAS MOCLDY 59 53 80 CALM 30.07R  
BEAUFORT ARPT FAIR 55 52 88 CALM 30.07S  
HILTON HEAD IS CLEAR 57 52 82 SW6 30.08R  
WALTERBORO PTCLDY 57 50 77 CALM 30.08R  
ALLENDALE FAIR 55 48 76 CALM 30.05S  
   
..SOUTHERN MIDLANDS AND PEE DEE
 
 
 
CITY SKY/WX TMP DP RH WIND PRES REMARKS
 
GEORGETOWN FAIR 50 45 81 CALM 30.09R  
KINGSTREE FAIR 57 45 62 CALM 30.07R  
ORANGEBURG MOCLDY 57 47 69 CALM 30.06R  
BARNWELL MOCLDY 55 45 67 CALM 30.06R  
AIKEN FAIR 56 44 65 S3 30.06S  
MANNING FAIR 57 46 67 CALM 30.07R  
COLUMBIA PTCLDY 60 44 55 CALM 30.03R  
SUMTER PTCLDY 57 42 56 S3 30.04R  
FLORENCE CLEAR 55 40 56 S7 30.05R  
MYRTLE BEACH CLEAR 59 52 77 S7 30.08R  
N MYRTLE BEACH CLEAR 56 52 86 SW7 30.07R  
 

 
 
GAZ063-065-086>088-099>101-113>116-118-119-134>141-150-040200-   
..SOUTHEAST GEORGIA
 
 
 
CITY SKY/WX TMP DP RH WIND PRES REMARKS
 
SAVANNAH ARPT MOCLDY 57 51 80 CALM 30.08R  
HUNTER AAF MOCLDY 59 51 76 CALM 30.05R  
FORT STEWART MOCLDY 56 52 85 CALM 30.05S  
STATESBORO MOCLDY 52 48 85 CALM 30.07S  
SYLVANIA MOCLDY 53 48 82 CALM 30.08R  
CLAXTON FAIR 54 52 92 CALM 30.08S  
MILLEN FAIR 55 48 79 MISG 30.06S  
METTER FAIR 58 52 83 CALM 30.07S  
REIDSVILLE FAIR 60 49 67 SW3 30.08S  
   
..CSRA, CENTRAL AND FAR SOUTHEAST GEORGIA
 
 
 
CITY SKY/WX TMP DP RH WIND PRES REMARKS
 
THOMSON MOCLDY 55 44 67 S3 30.05S  
AUGUSTA-BUSH MOCLDY 57 46 66 W3 30.04R  
AUGUSTA-DANIEL MOCLDY 69 42 37 CALM 30.05R  
SWAINSBORO FAIR 59 46 63 CALM 30.08S  
VIDALIA MOCLDY 59 50 72 CALM 30.09R  
EASTMAN FAIR 54 50 84 CALM 30.09S  
HAZLEHURST FAIR 59 51 76 CALM 30.08R  
ALMA MOCLDY 56 52 86 CALM 30.08R  
WAYCROSS MOCLDY 61 59 95 W3 30.10R  
JESUP FAIR 57 52 82 CALM 30.11R  
BAXLEY FAIR 54 50 87 CALM 30.09R  
BRUNSWICK MOCLDY 55 54 96 CALM 30.09S  
SAINT SIMONS MOCLDY 60 54 80 CALM 30.09R  
 

 
 
SCZ027-028-034-036>038-045-046-048>050-GAZ119-141-040200-   
..LAKE AND SUPPLEMENTAL COASTAL OBSERVATIONS
 
 
 
STATION/POSITION TIME TEMP WIND PRES WAVE SWELL
 
AIR SEA DIR/SP/G HT/PER HT/PER/DIR  
(UTC) (F) (DEG/KT/KT) (MB) (FT/S) (FT/S/D)  
WINYAH BAY 0045 58 CALM 1018.0S  
LAKE MURRAY 0120 60 CALM N/A  
CHRLSTN HARBOR 0048 59 58 CALM / 3 1018.6R  
ACE BASIN NERRS 0045 55 CALM 1019.0S  
FORT PULASKI 0048 60 59 230/ 5/ 7 1018.5R  
SAPELO ISLAND 0100 60 180/ 5 1019.0  
 

 
 
ANZ835-935-AMZ111-154-330-350-352-354-370-450-454-472-040200-   
..C-MAN AND BUOY OBSERVATIONS
 
 
 
STATION/POSITION TIME TEMP WIND PRES WAVE SWELL
 
AIR SEA DIR/SP/G HT/PER HT/PER/DIR  
(UTC) (F) (DEG/KT/KT) (MB) (FT/S) (FT/S/D)  
BUOY 41004 0110 69 71 190/ 8/ 10 1018.6  
BUOY 41008 0050 64 62 220/ 10/ 12 1018.2R 1/11 2/110/11  
FOLLY BEACH CMAN 0100 58 220/ 3/ 4 1019.2R  
CAPERS NEARSHORE 0108 60 59 190/ 4/ 8 1018.1F  
CAPERS NS WAVE 0048 58 N/A 2/ 4  
FRIPP NEARSHORE 0108 61 60 190/ 4/ 8 1017.7R  
 
 
STATION/POSITION TIME TEMP WIND PRES WAVE SWELL
 
AIR SEA DIR/SP/G HT/PER HT/PER/DIR  
(UTC) (F) (DEG/KT/KT) (MB) (FT/S) (FT/S/D)  
5E ST. MARYS GA 0030 65 64 N/A 1/11 2/110/11  
FRYING PAN BUOY 0100 70 69 130/ 8/ 10 1018.6  
BUOY 41025 0110 65 74 90/ 8/ 12 1019.0  
CAPE LOOKOUT NC 0100 64 100/ 9/ 9 1019.2S  
BUOY 41002 0100 72 73 40/ 2/ 4 1018.1  
BUOY 41010 0100 73 77 180/ 6/ 8 1020.1  
ST AUGUSTINE FL 0100 65 66 190/ 6/ 7 1020.0R  
 

 
 
 
CLICK HERE TO GO TO PREVIOUS BULLETINS.

The Nexlab SC Page
The Nexlab GA Page Main Text Page